カタログに戻る

TITAN 3C TRANSTAGE DEB

運用中MEO
NORAD 43515·DEBRIS·🇺🇸 United States

打ち上げ Feb 9, 1969 から Cape Canaveral Space Force Station

Loading…

次のパス (今後24時間)

TLE

経年Source: Space-Track

元期: Aug 29, 2026, 18:51 UTC

1 43515U 69013T   26241.78575905 -.00000184  00000-0  00000-0 0  9992
2 43515   1.9912  60.0111 0329603 146.7752 216.1539  0.95443792 28927

AllMySatでTITAN 3C TRANSTAGE DEBをリアルタイム追跡

Download on the App Store